Tracking 28790 objects as of 19-Apr-2024
HD Live streaming from Space Station
objects crossing your sky now

STARLINK-2702

Track STARLINK-2702 now!
10-day predictions
STARLINK-2702 is classified as:


NORAD ID: 48441
Int'l Code: 2021-040P
Perigee: 553.3 km
Apogee: 555.5 km
Inclination: 53.1 °
Period: 95.6 minutes
Semi major axis: 6925 km
RCS: Unknown
Launch date: May 9, 2021
Source: United States (US)
Launch site: AIR FORCE EASTERN TEST RANGE (AFETR)
Your satellite tracking list
Your tracking list is empty




NASA's NSSDC Master Catalog

Two Line Element Set (TLE):
1 48441U 21040P   24110.06803513  .00001775  00000-0  13810-3 0  9998
2 48441  53.0546  37.4474 0001537  72.1059 288.0097 15.06380185163961
Source of the keplerian elements: AFSPC